Temp
9 9 9 9 9 9 9 9 9 9 9 9 9 8 8 8 8 8 8 8 8 8 8 8 8 8 8 8 8 8 7 7 8
9 9 9 8 8 9 8 8 8 8 8 8 8 8 8 7 7 7 7 7 7 7 7 7 7 7 7 7 7 7 7 7 7
9 8 8 8 8 8 8 8 8 7 7 7 7 7 7 7 7 7 7 7 7 7 7 7 6 6 6 6 6 6 6 6 6
8 8 8 7 7 7 7 7 7 7 7 7 6 6 7 6 6 6 6 6 6 6 6 6 5 5 5 5 5 5 5 5 5
8 7 7 7 7 7 6 6 6 6 6 6 6 6 6 6 6 6 6 6 6 6 5 4 5 5 5 5 4 4 4 4 5
7 7 7 7 7 6 6 6 6 6 6 6 6 6 6 6 6 6 6 6 6 6 6 5 5 4 4 4 4 4 4 4 4
7 7 7 7 6 6 6 6 6 6 6 6 6 6 6 6 6 6 6 6 5 5 5 5 5 5 5 4 4 4 4 4 4
7 7 6 6 6 6 6 6 6 6 6 6 6 6 5 6 5 5 5 5 5 5 5 5 5 5 5 4 4 4 4 4 4
7 6 6 6 6 6 6 6 6 6 6 6 6 6 5 5 5 5 5 5 5 5 5 5 5 5 5 5 5 5 4 4 4
7 6 6 6 6 6 6 6 6 6 6 5 5 5 5 5 5 5 5 5 5 5 5 5 5 5 5 5 5 5 5 5 4
7 6 6 6 5 6 5 5 6 5 5 5 5 5 5 5 5 5 5 5 5 5 6 5 5 5 5 5 5 5 5 5 5
6 6 6 5 5 5 6 6 5 5 5 5 5 5 5 6 6 6 5 5 5 5 5 5 5 5 5 5 4 4 4 5 5
6 6 5 5 5 5 5 5 5 4 4 5 5 5 5 5 5 5 5 5 5 5 5 5 4 4 4 4 4 4 4 4 4
5 5 5 5 5 4 4 4 4 4 4 4 4 5 5 5 5 5 5 5 5 4 4 4 4 4 3 3 3 3 3 4 3
4 5 5 4 4 4 4 4 4 4 4 4 4 5 5 5 4 4 4 4 4 3 3 3 3 3 3 3 3 3 3 3 3
4 4 4 4 3 3 3 3 4 4 4 4 4 4 4 4 4 4 3 3 3 2 2 2 2 2 2 2 2 2 2 2 2
4 4 3 3 3 3 3 3 3 3 4 4 4 4 4 4 4 3 3 2 2 1 1 1 1 1 1 1 1 1 1 1 1
4 3 3 3 3 3 3 3 3 3 3 3 3 4 4 4 4 3 2 2 1 1 1 1 1 1 1 1 1 1 1 1 1
3 3 3 3 2 2 2 2 2 3 3 3 3 3 3 3 4 4 3 2 2 2 1 1 1 1 1 1 1 1 0 0 -0
3 2 2 2 2 2 2 2 2 2 2 2 2 2 2 2 2 3 2 2 2 2 1 1 1 1 0 0 0 0 -0 -1 -1
Height
3151 3151 3151 3150 3151 3150 3150 3151 3150 3150 3150 3150 3150 3150 3149 3149 3149 3148 3148 3147 3146 3146 3145 3145 3144 3144 3144 3144 3143 3143 3142 3143 3142
3151 3150 3150 3149 3149 3149 3149 3149 3149 3149 3149 3148 3148 3147 3147 3146 3146 3145 3144 3144 3143 3142 3142 3141 3141 3140 3140 3140 3140 3139 3139 3139 3138
3150 3149 3149 3148 3148 3148 3148 3148 3147 3147 3147 3146 3146 3146 3145 3144 3143 3142 3142 3141 3140 3139 3138 3138 3137 3137 3137 3137 3136 3136 3135 3134 3134
3148 3148 3147 3147 3147 3147 3147 3147 3146 3145 3145 3145 3144 3143 3142 3141 3141 3140 3139 3138 3137 3137 3136 3135 3134 3133 3133 3133 3132 3131 3131 3131 3131
3147 3147 3147 3146 3146 3146 3146 3145 3144 3144 3143 3142 3141 3141 3140 3138 3138 3137 3136 3135 3134 3133 3131 3131 3131 3130 3130 3129 3128 3127 3126 3126 3126
3146 3146 3145 3145 3145 3144 3144 3143 3142 3142 3141 3141 3140 3138 3137 3135 3135 3133 3132 3131 3130 3128 3126 3126 3126 3126 3126 3125 3124 3123 3122 3121 3121
3144 3144 3144 3143 3142 3142 3142 3141 3140 3140 3138 3138 3137 3136 3134 3132 3130 3130 3128 3127 3125 3123 3122 3121 3121 3120 3120 3119 3117 3117 3117 3116 3116
3142 3141 3141 3140 3140 3139 3139 3138 3137 3137 3135 3134 3133 3132 3130 3128 3127 3126 3124 3123 3121 3119 3117 3116 3115 3114 3113 3112 3111 3110 3110 3109 3109
3139 3138 3138 3137 3137 3136 3136 3135 3134 3133 3132 3130 3129 3128 3126 3124 3123 3122 3120 3118 3116 3113 3111 3109 3108 3108 3106 3105 3104 3103 3102 3101 3102
3136 3135 3135 3134 3134 3133 3133 3132 3131 3129 3128 3126 3125 3123 3122 3120 3118 3116 3115 3113 3110 3107 3105 3103 3102 3100 3099 3098 3097 3095 3094 3093 3093
3132 3132 3132 3131 3131 3130 3130 3128 3127 3125 3123 3121 3119 3118 3116 3114 3112 3110 3108 3106 3104 3101 3099 3097 3095 3093 3092 3090 3089 3088 3087 3085 3085
3128 3128 3128 3127 3127 3126 3126 3124 3123 3121 3119 3117 3114 3112 3110 3108 3105 3104 3102 3100 3097 3095 3092 3091 3089 3087 3085 3083 3081 3079 3077 3076 3076
3124 3124 3124 3124 3124 3123 3122 3121 3119 3117 3114 3112 3109 3107 3104 3102 3100 3098 3096 3094 3091 3088 3086 3083 3082 3080 3077 3075 3073 3071 3068 3067 3066
3120 3120 3120 3120 3120 3120 3118 3116 3115 3113 3110 3107 3104 3101 3099 3096 3094 3092 3089 3087 3084 3081 3078 3076 3074 3072 3070 3067 3064 3062 3060 3058 3056
3117 3117 3117 3117 3116 3115 3113 3112 3110 3107 3105 3102 3099 3096 3094 3091 3088 3085 3082 3079 3077 3074 3071 3068 3065 3062 3060 3058 3055 3053 3050 3048 3046
3113 3113 3114 3113 3112 3110 3108 3106 3104 3101 3099 3097 3094 3091 3088 3085 3082 3079 3075 3072 3069 3066 3062 3059 3056 3053 3050 3047 3045 3042 3039 3037 3034
3109 3109 3110 3109 3108 3106 3104 3101 3098 3096 3094 3091 3088 3085 3083 3080 3076 3072 3069 3065 3061 3057 3054 3050 3047 3043 3040 3037 3034 3030 3027 3024 3021
3105 3106 3106 3105 3103 3102 3099 3096 3093 3090 3087 3084 3081 3076 3074 3069 3069 3066 3062 3057 3054 3050 3046 3042 3038 3034 3030 3027 3023 3018 3014 3010 3006
3101 3101 3101 3100 3099 3096 3094 3091 3087 3083 3080 3077 3073 3069 3064 3059 3055 3055 3052 3047 3044 3040 3036 3033 3028 3024 3018 3013 3007 3003 2998 2993 2988
3097 3097 3097 3095 3093 3091 3088 3084 3080 3076 3073 3068 3064 3060 3055 3050 3044 3039 3042 3039 3035 3030 3025 3021 3015 3010 3004 2997 2991 2985 2978 2972 2966
Wind_Speed
2 1 1 1 2 3 3 5 5 6 8 9 10 10 11 12 12 12 13 14 13 13 14 14 14 14 15 15 16 18 18 18 17
0 1 2 2 3 4 4 5 5 6 7 8 9 10 11 12 12 13 13 13 13 13 13 13 13 15 15 15 15 17 18 19 19
3 2 3 3 4 5 6 6 6 6 7 8 9 10 10 11 12 13 12 13 13 13 13 13 13 14 15 16 16 16 17 18 19
4 4 3 3 3 4 4 4 4 4 6 7 8 9 11 12 14 15 14 15 15 15 16 15 15 16 16 17 18 18 18 19 19
5 4 4 4 4 4 5 5 6 7 8 9 11 12 13 14 16 16 17 17 17 17 17 15 14 16 18 18 20 21 22 21 21
6 6 6 7 7 7 7 8 9 10 11 12 13 14 14 15 17 18 18 19 18 17 18 18 17 17 18 20 20 22 23 23 22
9 8 8 9 9 9 9 10 11 12 13 14 15 16 18 19 19 19 19 19 19 18 18 19 20 21 22 24 27 26 25 21 22
12 11 11 11 11 11 11 12 13 14 15 17 18 19 20 21 20 20 20 21 21 21 22 22 23 24 25 26 27 27 28 28 27
14 14 14 14 13 13 14 15 15 16 17 18 18 19 20 20 21 21 22 23 24 25 26 27 27 27 29 30 31 31 33 34 33
16 17 17 17 15 14 15 16 16 18 18 18 19 20 21 23 24 25 25 25 25 25 26 26 27 27 28 29 30 30 32 34 35
17 17 17 16 16 16 15 16 18 19 20 21 22 23 24 24 25 25 24 25 25 26 26 26 27 27 28 28 28 29 30 31 32
17 16 15 15 15 16 16 17 18 20 21 23 24 25 25 25 24 25 25 26 26 26 27 28 29 30 30 31 32 33 33 33 32
16 15 14 14 14 16 16 17 19 21 23 24 25 25 24 24 24 25 26 27 28 30 31 31 32 32 33 33 33 34 35 36 35
16 15 13 13 15 16 17 19 21 22 24 25 26 25 25 25 25 27 28 29 30 31 32 33 34 34 34 35 35 36 37 38 38
16 14 13 14 15 17 20 22 24 24 24 25 25 25 26 26 27 29 30 31 31 33 33 34 35 36 37 37 38 38 39 40 40
16 14 14 14 16 19 22 25 26 27 27 26 26 27 28 28 28 29 31 31 33 32 35 36 37 38 39 40 40 41 41 43 44
17 14 14 14 17 20 24 26 28 29 28 28 28 29 29 28 28 30 32 32 33 35 36 37 38 40 41 41 43 45 47 49 50
15 13 13 16 19 22 25 28 30 31 30 29 31 33 33 35 32 31 32 32 33 34 36 38 39 41 44 46 48 50 52 54 55
14 13 14 17 20 24 27 29 31 32 32 32 32 34 37 39 43 39 37 38 37 38 38 39 42 45 48 51 54 56 58 60 61
14 14 16 19 23 27 30 32 33 34 34 34 35 36 37 39 42 44 39 38 39 41 43 45 49 51 54 58 61 63 65 67 68
Wind_Direction
97 150 185 220 262 258 267 265 260 261 266 267 269 270 274 278 282 284 286 287 288 288 290 291 291 289 284 278 276 275 274 273 271
271 262 261 261 268 264 257 261 263 269 271 276 281 284 285 288 290 292 293 294 296 298 296 294 293 290 288 286 280 278 276 275 274
336 313 281 271 267 269 269 273 278 282 282 283 286 290 293 295 297 298 300 303 304 302 300 295 294 293 292 288 282 278 277 276 275
351 339 327 312 298 288 284 288 290 297 301 300 299 299 298 298 298 297 299 301 299 297 294 292 293 296 293 287 286 282 276 272 269
338 329 317 311 308 304 308 310 313 304 297 294 293 293 295 295 295 297 300 298 295 293 288 286 285 291 292 294 293 285 280 275 274
314 316 307 295 294 299 304 304 301 298 298 297 293 293 292 292 295 297 297 295 294 293 291 286 273 265 263 264 267 271 281 283 278
302 305 302 290 289 294 297 299 299 299 298 298 298 299 298 297 297 297 298 296 295 291 286 285 281 275 271 266 267 268 267 270 273
297 298 293 291 288 293 297 298 298 298 300 303 305 303 300 302 300 299 296 295 292 289 286 283 278 275 275 273 275 272 269 264 260
289 289 290 290 287 291 295 298 300 300 300 301 301 301 300 299 296 296 295 291 289 287 286 282 281 279 277 275 273 272 270 269 267
283 281 282 285 289 291 295 296 298 301 303 303 304 304 301 299 298 296 294 292 290 290 290 289 288 285 283 281 280 278 275 273 271
279 279 277 280 285 289 292 299 305 307 307 308 307 304 302 301 299 298 297 296 295 294 293 292 291 290 289 287 285 283 281 279 277
281 280 278 282 286 292 297 300 303 304 305 305 304 303 302 302 302 300 299 298 297 295 294 293 292 291 290 289 288 287 285 281 280
286 284 279 282 289 292 295 301 305 307 306 304 303 303 303 303 302 301 301 300 298 297 296 295 293 292 290 289 287 286 285 284 283
288 283 283 288 292 293 301 304 306 307 308 307 307 307 305 305 303 302 301 300 298 297 295 294 291 290 289 287 286 285 284 283 282
279 284 285 287 292 301 306 309 312 312 311 309 307 306 306 306 305 305 303 301 299 297 294 292 291 290 289 287 287 286 285 284 283
267 278 280 286 297 305 312 313 313 314 313 310 308 307 306 307 306 306 302 301 299 295 293 293 292 291 291 291 290 289 288 287 286
271 267 274 290 301 310 312 314 315 314 311 308 306 306 305 304 306 305 303 299 298 295 295 295 294 293 292 292 292 291 291 289 288
258 263 281 295 307 311 315 316 314 315 313 311 311 311 309 308 306 305 302 298 296 295 294 292 293 293 293 293 292 291 290 289 287
256 270 287 300 307 313 316 317 317 316 314 313 314 313 313 311 309 308 307 303 301 297 296 297 296 295 295 295 295 294 292 290 288
259 275 290 301 311 316 316 317 318 317 315 315 315 314 313 311 309 306 304 301 301 299 298 299 299 299 299 297 296 295 294 293 293